Starlink 5032

operational
NORAD ID: 53895 Int'l Des: 2022-119 Owner: SPXS Country: US Constellation: starlink
LEOCIRCULAR

关于 Starlink 5032

正在加载描述...

实时位置

正在加载3D地球...

即将过境

高度历史

Altitude vs Time

uPlot chart will show altitude changes over time

两行轨道根数

1 53895U 22119K 25352.26653532 -.00000349 00000-0 -38573-5 0 9993
2 53895 53.2185 329.5584 0001398 91.4266 268.6886 15.08834581179397
Epoch: Dec 18, 2025 • Age: 8 hours

当前状态

高度 551.3 km
速度 7.59 km/s
星下点 -34.27°S, 2.02°W
发射日期 Sep 24, 2022
运行时间 3.2 years
类型 internet

技术详情

分类 Payload
质量 305.00 kg
干质量 290.00 kg
总质量 305.00 kg
长度 0.20 m
直径 2.80 m
跨度 9.00 m
形状 Box + pan
制造商 SPXS
平台类型 Starlink
阶段状态 In Orbit
所有者/国家 SPXS/US

大型星座

Loading constellations...